Cloud_Cover
4 49 56 5 5 64 5 0 1 18 46 41 100 100 100 10 1 0 0 0 0 0 0 0 0 0 0 0 0 0 6 56 95 47 60 92 42 63 0 4 0 0 0 0 0
5 33 98 96 44 5 5 5 12 38 100 100 100 100 70 2 0 0 0 0 0 0 0 0 0 0 0 0 0 0 95 100 41 3 13 83 5 7 14 95 82 100 14 0 0
5 5 6 16 79 5 5 17 25 100 100 100 100 100 34 1 0 0 0 0 0 0 0 0 0 0 0 0 0 0 44 0 1 4 1 8 56 100 15 64 100 100 98 0 0
8 29 5 5 99 99 52 88 29 100 100 100 100 55 30 0 0 0 0 0 0 0 0 0 0 0 0 0 0 0 0 0 5 1 5 5 43 10 37 26 72 80 0 0 0
6 98 63 90 6 97 88 37 62 80 100 100 100 23 19 0 0 0 0 0 0 0 0 0 0 0 0 0 0 0 0 3 4 5 3 0 4 37 3 4 0 0 0 0 0
21 5 5 26 35 15 100 100 100 100 100 100 35 7 5 5 2 4 0 0 0 0 0 0 0 0 0 0 0 2 0 0 0 4 0 0 1 25 11 0 1 0 0 0 0
61 84 5 17 19 91 92 73 100 100 100 94 5 7 5 3 5 5 0 0 0 2 0 0 0 0 0 0 0 0 1 0 4 4 0 0 24 100 86 2 2 0 0 0 5
12 5 9 100 5 5 85 85 72 98 100 100 100 4 5 9 0 5 5 2 5 5 3 0 0 0 2 2 2 5 4 4 62 0 0 0 84 100 0 0 0 0 0 0 37
61 5 51 100 84 1 4 5 60 100 62 51 100 40 99 98 100 100 100 52 77 26 5 5 5 45 96 0 4 14 0 76 59 0 0 0 2 0 0 0 4 2 0 0 4
5 5 0 1 7 25 5 11 88 34 32 6 100 35 39 92 24 8 16 61 15 50 49 5 3 30 9 4 21 80 81 68 1 5 0 0 56 92 2 0 2 3 0 0 0
13 0 0 0 5 5 16 5 4 94 33 1 57 100 38 100 5 4 5 52 5 99 100 83 100 48 0 5 0 1 4 2 40 51 3 2 28 85 27 3 96 5 0 0 0
20 1 2 0 4 5 82 7 5 17 5 0 4 5 44 25 14 84 5 0 17 59 100 100 6 9 99 9 0 0 1 6 66 43 0 0 4 4 26 5 2 86 0 0 0
0 0 0 2 4 3 2 100 5 5 5 2 4 5 2 1 3 63 100 72 5 64 9 12 5 2 0 1 1 0 3 19 5 5 3 2 4 50 100 41 4 3 0 0 0
0 0 0 50 9 0 2 4 92 5 4 2 0 0 0 0 0 44 95 64 97 66 27 5 0 0 0 0 2 5 5 1 0 3 1 13 6 57 70 46 1 1 0 0 0
0 14 11 85 0 0 0 0 5 26 5 0 1 3 4 5 28 4 3 5 5 5 3 0 0 0 0 1 2 0 0 0 0 0 0 3 47 100 78 78 69 13 0 0 7
5 28 87 0 0 0 0 0 1 5 0 0 1 0 5 5 5 35 5 3 5 5 5 0 5 0 0 0 0 0 0 0 0 2 21 6 73 100 99 62 6 0 0 0 0
5 5 54 1 0 0 0 0 0 0 0 0 0 0 0 1 2 4 5 3 5 2 5 1 6 0 0 0 0 0 0 0 2 4 51 34 15 94 51 0 0 2 0 2 1
94 81 18 5 0 0 0 0 0 0 0 0 0 0 0 0 3 4 1 5 5 5 1 2 2 0 0 0 0 0 1 0 22 98 100 91 5 9 14 2 0 0 5 0 1
92 84 58 16 1 0 0 0 0 0 0 0 0 0 0 0 0 0 0 0 0 5 0 0 0 0 0 0 0 0 0 0 5 33 14 88 92 8 33 0 0 1 0 0 4
75 100 5 5 4 0 0 0 0 0 0 0 0 0 0 0 0 0 0 0 0 0 2 0 0 0 0 0 0 0 0 0 0 4 93 60 61 72 15 0 0 5 4 3 4
5 7 75 11 3 0 5 0 0 0 0 0 0 0 0 0 0 0 0 0 0 0 0 0 0 5 0 0 0 0 0 0 5 74 94 94 100 97 100 4 0 6 36 5 6
5 5 48 14 9 5 5 0 0 0 0 0 0 0 0 0 0 0 0 0 0 0 0 0 0 0 5 0 0 0 0 0 0 2 15 4 84 6 100 93 0 0 5 0 5
0 0 13 2 5 6 14 5 0 0 5 0 5 2 1 0 0 0 0 0 0 0 0 0 0 1 0 5 0 0 0 0 1 0 66 100 100 100 8 17 0 0 0 0 0
0 0 0 0 2 0 5 5 16 0 2 0 0 0 0 0 0 0 0 0 0 0 0 0 2 2 16 66 100 11 0 4 5 32 100 81 49 2 98 40 0 0 0 0 0
3 0 31 3 4 0 1 1 5 5 5 4 0 0 2 0 0 0 0 0 1 0 0 0 0 5 0 96 100 17 3 1 56 18 97 100 83 98 100 100 4 0 15 0 7
24 65 30 6 68 4 5 5 5 5 5 5 5 0 0 5 0 0 3 1 5 4 0 0 5 4 5 6 82 42 5 5 59 47 64 99 54 75 100 100 3 0 20 0 32
10 1 0 1 4 5 5 5 5 4 0 0 5 5 0 3 3 5 2 4 4 29 54 17 5 3 80 100 99 100 10 5 3 5 27 100 100 100 19 7 0 0 6 25 50